COSMOS 1408 DEB

Satellite information

Favourite Embed

Satellite Type and Status

DEBRISDECAYED

Key statistics

Satellite COSMOS 1408 DEB at a glance.

Uptime

15783

Days in orbit

Revolutions

≈ 16.3

Per day

Orbit

LEO

Low Earth Orbit

Inclination

82.5

Latest

Satellite identification and parameters

Extended collection of information and parameters for COSMOS 1408 DEB.

Object identification

Identified? True

Debris? True

Object name: COSMOS 1408 DEB

International designator: 1982-092AA

Object number (NORAD): 49537

Object ID (CCSDS): 49537

Country: COMMONWEALTH OF INDEPENDENT STATES (CIS)

Current information (Y/N): Y

RCS size: MEDIUM

Orbital parameters

Decay date: Dec. 2, 2025

Period: 88.154 minutes

Inclination: 82.5092 deg

SMA: 6561.291 km

Apoapsis: 191.537 km

Periapsis: 174.775 km

RAAN: 107.1368 deg

Eccentricy: 0.00127731

Argument of periapsis: 299.8571 deg

Mean anomaly: 60.1455 deg

Mean motion: 16.33498888 rev/day

Mean motion (dot): 0.05878558 rev/day2

B* drag term: 0.00094222941 1/REarth

Two-line elements (TLE)

Creation date: Dec. 2, 2025, 2:18 a.m.

Reference frame: TEME

Reference center: EARTH

Epoch: Dec. 1, 2025, 10:29 a.m. UTC

TLE line 0: 0 COSMOS 1408 DEB

TLE line 1: 1 49537U 82092AA 25335.43705615 .05878558 -12521-5 94223-3 0 9994

TLE line 2: 2 49537 82.5092 107.1368 0012773 299.8571 60.1455 16.33498888224033

Live tracking on map

Satellite COSMOS 1408 DEB has decayed and is no longer in orbit. No tracking available.

In-orbit conjunctions

Satellite COSMOS 1408 DEB has decayed and is no longer in orbit. No conjunctions available.

Associated space launch

Tselina-D satellites provided detailed observation of radio sources detected by the smaller Tselina-O satellites as part of the Tselina ELINT system.

COSMOS 1408 DEB was lifted into orbit during the mission ‘Tsiklon-3 | Tselina-D 38’, on board a Tsiklon-3 space rocket.

The launch took place on Sept. 16, 1982, 4:55 a.m. from 32/2.

For more information about the launch, click the button.

Launch to space Tsiklon-3 | Tselina-D 38
Tsiklon-3 | Tselina-D 38

Agency: N/A

Status: Launch Successful

Launch date: Sept. 16, 1982, 4:55 a.m. UTC

Rocket: Tsiklon-3

Launch pad: 32/2

Location: Plesetsk Cosmodrome, Russian Federation

...

Latest news about this satellite

There are no fresh news available about this satellite. Check back as we update our databases every day.


Newsletter sign-up

Weekly statistics, charts and insights to help you stay on top of the space industry.